BEESAT-4 (41619 NORAD) Tracking and Keplerian Element Data

This shows tracking and keplerian element data for the satellite.

Feedback or suggestion? Click here.




ElementValue
Catalog41619
NameBEESAT-4
Epoch Orbit33629
Epoch Day270.11918294
Epoch Year2022
RAAN318.1428
Inclination97.206
Eccentricity0.0010628
Argument of Perigee111.0921
Mean Anonmoly249.1459
Mean Motion15.33639525
Decay Rate0.00018444
L11 41619U 16040W 22270.11918294 .00018444 00000+0 56775-3 0 9993
L22 41619 97.2060 318.1428 0010628 111.0921 249.1459 15.33639525336295

Live tracking and technical data element details for BEESAT-4 (NORAD 41619). BEESAT-4 can be tracked NOW for your location showing map with azimuth and elevation plus other details from your city location.

Track the satellite on the map from your city or location and see movement details for azimuth, elevation, latitude, longitude, range, height, and movement on the map or in text.







IsCatalogInMostPopularTable: catalog: 41619, numindb: 600
Update: records affected: 1



GetName: 41619 BEESAT-4

Hit Count: updated at: Fri, 30 Sep 2022 02:16:31 GMT